Leesburg, FL

1:33 PM EST on December 08, 2019 (GMT -0500)
Leesburg Regional

Weather History for KLEE - October, 2019

Change the Weather History Date:

Friday, October 18, 2019

  Actual Average Record
Temperature  
Mean Temperature 72 °F -  
Max Temperature 77 °F 82 °F 91 °F (1989)
Min Temperature 66 °F 62 °F 47 °F (1977)
Cooling Degree Days 6    
Growing Degree Days 22 (Base 50)    
Moisture  
Dew Point 60 °F    
Average Humidity 67    
Maximum Humidity 87    
Minimum Humidity 49    
Precipitation  
Precipitation 0.00 in - - ()
Sea Level Pressure  
Sea Level Pressure 29.93 in    
Wind  
Wind Speed 5 mph (NE)    
Max Wind Speed 10 mph    
Max Gust Speed -    
Visibility 10 miles    
Events Rain    
Averages and records for this station are not official NWS values.
T = Trace of Precipitation, MM = Missing Value Source: NWS Daily Summary

Daily Weather History Graph

Daily Weather History Graph

Search for Another Location

Airport or City:

Astronomy

Oct. 18, 2019 Rise Set
Actual Time 7:29 AM EDT 6:54 PM EDT
Civil Twilight 7:06 AM EDT 7:18 PM EDT
Nautical Twilight 6:38 AM EDT 7:45 PM EDT
Astronomical Twilight 6:11 AM EDT 8:13 PM EDT
Moon 10:27 PM EDT (10/18) 11:44 AM EDT (10/18)
Length of Visible Light 12h 12m
Length of Day
11h 24m
Waning Gibbous, 79% of the Moon is Illuminated
Oct 18
Waning Gibbous
Oct 21
Last Quarter
Oct 27
New
Nov 4
First Quarter
Nov 12
Full

Hourly Weather History & Observations

Time (EDT) Temp. Dew Point Humidity Pressure Visibility Wind Dir Wind Speed Gust Speed Precip Events Conditions
12:53 AM 69.1 °F 57.9 °F 68% 29.96 in 10.0 mi NNE 4.6 mph - N/A   Clear
1:53 AM 68.0 °F 57.9 °F 70% 29.95 in 10.0 mi North 4.6 mph - N/A   Clear
2:53 AM 66.0 °F 59.0 °F 78% 29.95 in 10.0 mi NNE 3.5 mph - N/A   Clear
3:53 AM 68.0 °F 54.0 °F 61% 29.91 in 10.0 mi NNE 6.9 mph - N/A   Clear
4:53 AM 66.0 °F 55.0 °F 68% 29.90 in 10.0 mi NNE 5.8 mph - N/A   Clear
5:53 AM 66.9 °F 55.0 °F 66% 29.92 in 10.0 mi Calm Calm - N/A   Clear
6:53 AM 66.9 °F 55.9 °F 68% 29.94 in 10.0 mi NE 3.5 mph - N/A   Clear
7:53 AM 68.0 °F 57.0 °F 68% 29.97 in 10.0 mi Calm Calm - N/A   Clear
8:53 AM 69.1 °F 54.0 °F 58% 29.97 in 10.0 mi NE 4.6 mph - N/A   Clear
9:53 AM 70.0 °F 53.1 °F 55% 29.97 in 10.0 mi NE 9.2 mph - N/A   Scattered Clouds
10:53 AM 73.0 °F 53.1 °F 49% 29.99 in 10.0 mi NNE 6.9 mph - N/A   Mostly Cloudy
11:53 AM 75.0 °F 55.0 °F 50% 29.98 in 10.0 mi NE 4.6 mph - N/A   Scattered Clouds
12:53 PM 75.9 °F 55.9 °F 50% 29.96 in 10.0 mi NE 6.9 mph - N/A   Clear
1:53 PM 75.9 °F 59.0 °F 56% 29.94 in 10.0 mi ENE 4.6 mph - N/A   Clear
2:53 PM 77.0 °F 60.1 °F 56% 29.92 in 10.0 mi NE 6.9 mph - N/A   Clear
3:53 PM 77.0 °F 62.1 °F 60% 29.92 in 10.0 mi ENE 6.9 mph - N/A   Partly Cloudy
4:53 PM 75.9 °F 64.0 °F 67% 29.90 in 10.0 mi NE 8.1 mph - N/A   Mostly Cloudy
5:53 PM 73.9 °F 64.9 °F 73% 29.91 in 10.0 mi ENE 3.5 mph - 0.00 in   Mostly Cloudy
6:53 PM 73.9 °F 66.0 °F 76% 29.90 in 10.0 mi ENE 8.1 mph - N/A   Scattered Clouds
7:01 PM 73.9 °F 66.0 °F 76% 29.89 in 10.0 mi ENE 9.2 mph - N/A   Mostly Cloudy
7:53 PM 73.9 °F 66.0 °F 76% 29.90 in 10.0 mi ENE 5.8 mph - N/A   Mostly Cloudy
8:53 PM 73.9 °F 66.0 °F 76% 29.89 in 10.0 mi ENE 10.4 mph - 0.00 in   Partly Cloudy
9:53 PM 73.9 °F 66.9 °F 79% 29.91 in 10.0 mi NE 5.8 mph - 0.00 in Rain Light Rain
10:53 PM 75.0 °F 69.1 °F 82% 29.91 in 8.0 mi East 9.2 mph - 0.00 in Rain Rain
11:53 PM 75.0 °F 71.1 °F 87% 29.89 in 3.0 mi East 9.2 mph - N/A Rain Heavy Rain